User: anonymous   Login
Location: Columbia
(38.9520°N, 92.3340°W)
Time: 11:58:08
(UTC-05:00)
Language:

Cosmos 158 Rocket - Orbit

View from above orbital plane
View from above orbital plane
View from above satellite
View from above satellite

Ground track
Ground track

The orbit data is extracted from the following two-line orbital elements,

1  2802U 67045B   17142.29875045 +.00000015 +00000-0 +12502-4 0  9999
2  2802 074.0120 214.8839 0067820 275.5628 083.7796 14.43639940625243
Epoch (UTC): 22 May 2017 07:10:12
Eccentricity: 0.0067820
inclination: 74.0120°
perigee height: 698 km
apogee height: 795 km
right ascension of ascending node: 214.8839°
argument of perigee: 275.5628°
revolutions per day: 14.43639940
mean anomaly at epoch: 83.7796°
orbit number at epoch: 62524

The dashed part of the orbit path shows where the satellite is in the earth's shadow,  

DLR